N3PL Weather Reports


Display with metric or nautical units.
time (UTC)temp
F
wind
direction
speed
MPH
gust
MPH
rain 1hr
in
rain 24hr
in
rain mn
in
humidity
%
barometer
mb
20260508102007 44 318 0.0 0.0 0.00 0.00 0.00 79 1009.2
20260508101558 44 318 0.0 0.0 0.00 0.00 0.00 79 1009.2
20260508101106 44 318 0.0 0.0 0.00 0.00 0.00 79 1009.0
20260508100606 44 318 0.0 0.0 0.00 0.00 0.00 78 1009.0
20260508100002 44 318 0.0 0.0 0.00 0.00 0.00 77 1009.0
20260508095509 44 318 0.0 0.0 0.00 0.00 0.00 77 1008.9
20260508095011 45 318 0.0 0.0 0.00 0.00 0.00 76 1008.9
20260508094513 45 318 0.0 0.0 0.00 0.00 0.00 75 1008.9
20260508094106 45 318 0.0 0.0 0.00 0.00 0.00 74 1008.9
20260508093503 46 318 0.0 0.0 0.00 0.00 0.00 73 1008.9
20260508093007 46 318 0.0 0.0 0.00 0.00 0.00 73 1008.9
20260508092559 46 318 0.0 0.0 0.00 0.00 0.00 73 1008.8
20260508092102 46 318 0.0 0.0 0.00 0.00 0.00 73 1008.8
20260508091613 46 318 0.0 0.0 0.00 0.00 0.00 73 1008.8
20260508091001 46 318 0.0 0.0 0.00 0.00 0.00 71 1008.7
20260508090503 47 318 0.0 0.0 0.00 0.00 0.00 70 1008.7
20260508090005 47 318 0.0 0.0 0.00 0.00 0.00 69 1008.7
20260508085510 47 318 0.0 0.0 0.00 0.00 0.00 69 1008.6
20260508085103 47 318 0.0 0.0 0.00 0.00 0.00 69 1008.6
20260508084605 48 318 0.0 0.0 0.00 0.00 0.00 68 1008.6
20260508084001 48 318 0.0 0.0 0.00 0.00 0.00 67 1008.3
20260508083505 48 318 0.0 0.0 0.00 0.00 0.00 67 1008.3
20260508083010 48 318 0.0 0.0 0.00 0.00 0.00 66 1008.3
20260508082603 48 318 0.0 0.0 0.00 0.00 0.00 66 1008.1
20260508082004 49 318 0.0 0.0 0.00 0.00 0.00 65 1008.1
20260508081507 49 318 0.0 0.0 0.00 0.00 0.00 65 1008.1
20260508081100 49 318 0.0 0.0 0.00 0.00 0.00 64 1007.8
20260508080603 49 318 0.0 0.0 0.00 0.00 0.00 64 1007.8
20260508080105 49 318 0.0 0.0 0.00 0.00 0.00 63 1007.8
20260508075507 50 318 0.0 0.0 0.00 0.00 0.00 62 1007.5
20260508075059 50 318 0.0 0.0 0.00 0.00 0.00 62 1007.5
20260508074606 50 282 0.0 0.0 0.00 0.00 0.00 61 1007.5
20260508074002 50 328 0.0 0.0 0.00 0.00 0.00 61 1007.3
20260508073600 51 328 0.0 0.0 0.00 0.00 0.00 60 1007.3
20260508073050 51 308 0.0 0.0 0.00 0.00 0.00 59 1007.3
20260508072549 51 309 0.0 0.0 0.00 0.00 0.00 59 1007.1
20260508072052 51 272 0.0 0.0 0.00 0.00 0.00 59 1007.1
20260508071600 51 285 0.0 0.0 0.00 0.00 0.00 59 1007.1
20260508071100 51 288 0.0 0.0 0.00 0.00 0.00 59 1006.9
20260508070605 51 268 0.0 0.0 0.00 0.00 0.00 59 1006.9
20260508070004 51 287 0.0 0.0 0.00 0.00 0.00 61 1006.9
20260508065600 52 287 0.0 0.0 0.00 0.00 0.00 61 1006.7
20260508065042 52 328 0.0 0.0 0.00 0.00 0.00 63 1006.7
20260508064546 52 285 0.0 0.0 0.00 0.00 0.00 63 1006.7
20260508064053 52 304 0.0 0.0 0.00 0.00 0.00 63 1006.4
20260508063557 52 306 0.0 0.0 0.00 0.00 0.00 63 1006.4
20260508063105 52 325 0.0 0.0 0.00 0.00 0.00 65 1006.4
20260508062603 52 301 0.0 0.0 0.00 0.00 0.00 65 1006.3
20260508062106 51 281 0.0 0.0 0.00 0.00 0.00 67 1006.3
20260508061504 51 319 0.0 0.0 0.00 0.00 0.00 71 1006.3
20260508061006 51 319 0.0 0.0 0.00 0.00 0.00 72 1006.2
20260508060602 51 292 0.0 0.0 0.00 0.00 0.00 73 1006.2
20260508060105 50 292 0.0 0.0 0.00 0.00 0.00 74 1006.2
20260508055504 50 292 0.0 0.0 0.00 0.00 0.00 75 1006.0
20260508055007 50 292 0.0 0.0 0.00 0.00 0.00 75 1006.0
20260508054601 51 292 0.0 0.0 0.00 0.00 0.00 74 1006.0
20260508054103 51 292 0.0 0.0 0.00 0.00 0.00 73 1005.8
20260508053607 51 292 0.0 0.0 0.00 0.00 0.00 73 1005.8
20260508053003 51 292 0.0 0.0 0.00 0.00 0.00 73 1005.8
20260508052600 51 292 0.0 0.0 0.00 0.00 0.00 72 1005.7
20260508052047 52 292 0.0 0.0 0.00 0.00 0.00 71 1005.7
20260508051605 52 292 0.0 0.0 0.00 0.00 0.00 70 1005.7
20260508051057 52 292 0.0 0.0 0.00 0.00 0.00 70 1005.7
20260508050603 52 292 0.0 0.0 0.00 0.00 0.00 69 1005.7
20260508050004 52 292 0.0 0.0 0.00 0.00 0.00 69 1005.7
20260508045559 53 292 0.0 0.0 0.00 0.00 0.00 69 1005.5
20260508045101 53 292 0.0 0.0 0.00 0.00 0.00 68 1005.5
20260508044618 53 292 0.0 0.0 0.00 0.00 0.00 68 1005.5
20260508044105 53 292 0.0 0.0 0.00 0.00 0.00 68 1005.5
20260508043503 53 292 0.0 0.0 0.00 0.00 0.00 67 1005.5
20260508043012 53 292 0.0 0.0 0.00 0.00 0.00 67 1005.5
20260508042510 53 292 0.0 0.0 0.00 0.00 0.00 67 1005.4
20260508042011 53 292 0.0 0.0 0.00 0.00 0.00 67 1005.4
20260508041614 53 292 0.0 0.0 0.00 0.00 0.00 67 1005.4
20260508041002 53 292 0.0 0.0 0.00 0.00 0.00 67 1005.5
20260508040506 53 292 0.0 0.0 0.00 0.00 0.00 68 1005.5
20260508040006 53 292 0.0 0.0 0.00 0.00 0.00 67 1005.5
20260508035600 53 292 0.0 0.0 0.00 0.00 0.00 67 1005.4
20260508035104 53 292 0.0 0.0 0.00 0.00 0.00 67 1005.4
20260508034607 53 292 0.0 0.0 0.00 0.00 0.00 67 1005.4
20260508034001 53 292 0.0 0.0 0.00 0.00 0.00 67 1005.4
20260508033555 53 292 0.0 0.0 0.00 0.00 0.00 67 1005.4
20260508033102 53 292 0.0 0.0 0.00 0.00 0.00 67 1005.4
20260508032604 53 292 0.0 0.0 0.00 0.00 0.00 67 1005.4
20260508032106 53 292 0.0 0.0 0.00 0.00 0.00 67 1005.4
20260508031606 53 292 0.0 0.0 0.00 0.00 0.00 67 1005.4
20260508031003 54 292 0.0 0.0 0.00 0.00 0.00 67 1005.4
20260508030506 54 292 0.0 0.0 0.00 0.00 0.00 67 1005.4
20260508030008 54 292 0.0 0.0 0.00 0.00 0.00 67 1005.4
20260508025600 54 292 0.0 0.0 0.00 0.00 0.00 67 1005.4
20260508025102 54 292 0.0 0.0 0.00 0.00 0.00 67 1005.4
20260508024606 54 292 0.0 0.0 0.00 0.00 0.00 67 1005.4
20260508024101 54 292 0.0 0.0 0.00 0.00 0.00 66 1005.5
20260508023502 53 292 0.0 0.0 0.00 0.00 0.00 66 1005.5
20260508023008 53 292 0.0 0.0 0.00 0.00 0.00 66 1005.5
20260508022600 53 292 0.0 0.0 0.00 0.00 0.00 65 1005.4
20260508022104 53 292 0.0 0.0 0.00 0.00 0.00 64 1005.4
20260508021500 53 292 0.0 0.0 0.00 0.00 0.00 62 1005.4
20260508021006 52 292 0.0 0.0 0.00 0.00 0.00 62 1005.2
20260508020557 52 292 0.0 0.0 0.00 0.00 0.00 62 1005.2
20260508015604 51 292 0.0 0.0 0.00 0.00 0.00 65 1005.0
20260508015001 52 292 0.0 0.0 0.00 0.00 0.00 63 1005.0
20260508014505 52 292 0.0 0.0 0.00 0.00 0.00 62 1005.0
20260508014056 52 292 0.0 0.0 0.00 0.00 0.00 62 1004.8
20260508013600 52 292 0.0 0.0 0.00 0.00 0.00 60 1004.8
20260508013002 53 292 0.0 0.0 0.00 0.00 0.00 60 1004.8
20260508012504 53 292 0.0 0.0 0.00 0.00 0.00 58 1004.6
20260508012007 53 292 0.0 0.0 0.00 0.00 0.00 57 1004.6
20260508011510 54 292 0.0 0.0 0.00 0.00 0.00 57 1004.6
20260508011012 54 292 0.0 0.0 0.00 0.00 0.00 58 1004.4
20260508010515 55 292 0.0 0.0 0.00 0.00 0.00 54 1004.4
20260508010018 55 292 0.0 0.0 0.00 0.00 0.00 55 1004.4
20260508005504 55 292 0.0 0.0 0.00 0.00 0.00 56 1004.3
20260508005057 55 292 0.0 0.0 0.00 0.00 0.00 53 1004.3
20260508004600 56 292 0.0 0.0 0.00 0.00 0.00 54 1004.3
20260508004101 56 292 0.0 0.0 0.00 0.00 0.00 52 1004.2
20260508003504 56 292 0.0 0.0 0.00 0.00 0.00 51 1004.2
20260508003007 57 292 0.0 0.0 0.00 0.00 0.00 50 1004.2
20260508002512 57 292 0.0 0.0 0.00 0.00 0.00 50 1004.1
20260508002104 58 292 0.0 0.0 0.00 0.00 0.00 49 1004.1
20260508001503 58 292 0.0 0.0 0.00 0.00 0.00 43 1004.1
20260508001007 58 292 0.0 0.0 0.00 0.00 0.00 42 1004.0
20260508000604 59 292 0.0 0.0 0.00 0.00 0.00 42 1004.0
20260508000000 59 292 0.0 0.0 0.00 0.00 0.00 43 1004.0
20260507235606 60 292 0.0 0.0 0.00 0.00 0.00 42 1003.8
20260507235001 60 292 0.0 0.0 0.00 0.00 0.00 43 1003.8
20260507234508 60 292 0.0 0.0 0.00 0.00 0.00 44 1003.8
20260507234100 61 292 0.0 0.0 0.00 0.00 0.00 43 1003.7
20260507233604 61 292 0.0 0.0 0.00 0.00 0.00 37 1003.7
20260507233001 61 292 0.0 0.0 0.00 0.00 0.00 33 1003.7
20260507232505 61 292 0.0 0.0 0.00 0.00 0.00 35 1003.8
20260507232008 61 292 0.0 0.0 0.00 0.00 0.00 33 1003.8
20260507231510 62 292 0.0 0.0 0.00 0.00 0.00 35 1003.8
20260507231012 62 287 0.0 0.0 0.00 0.00 0.00 33 1003.7
20260507230606 62 287 0.0 0.0 0.00 0.00 0.00 33 1003.7
20260507230053 62 287 0.0 0.0 0.00 0.00 0.00 33 1003.7
20260507225556 62 287 0.0 0.0 0.00 0.00 0.00 33 1003.6
20260507225059 62 287 0.0 0.0 0.00 0.00 0.00 31 1003.6
20260507224606 62 287 0.0 0.0 0.00 0.00 0.00 31 1003.6
20260507224006 62 287 0.0 0.0 0.00 0.00 0.00 31 1003.6
20260507223509 62 285 0.0 0.0 0.00 0.00 0.00 31 1003.6
20260507223102 62 285 0.0 0.0 0.00 0.00 0.00 31 1003.6
20260507222605 62 308 0.0 0.0 0.00 0.00 0.00 32 1003.5
20260507222003 62 309 0.0 0.0 0.00 0.00 0.00 31 1003.5
20260507221508 62 309 0.0 0.0 0.00 0.00 0.00 31 1003.5
20260507221100 62 308 0.0 0.0 0.00 0.00 0.00 32 1003.6
20260507220608 62 308 0.0 0.0 0.00 0.00 0.00 30 1003.6
20260507220106 62 308 0.0 0.0 0.00 0.00 0.00 30 1003.6
20260507215504 62 309 0.0 0.0 0.00 0.00 0.00 31 1003.6
20260507215102 62 281 0.0 0.0 0.00 0.00 0.00 30 1003.6
20260507214510 63 268 0.0 0.0 0.00 0.00 0.00 30 1003.6
20260507214101 63 271 0.0 0.0 0.00 0.00 0.00 30 1003.7
20260507213606 63 282 0.0 0.0 0.00 0.00 0.00 31 1003.7
20260507213003 63 328 0.0 0.0 0.00 0.00 0.00 29 1003.7
20260507212508 63 282 0.0 0.0 0.00 0.00 0.00 30 1003.6
20260507212059 63 274 0.0 0.0 0.00 0.00 0.00 33 1003.6
20260507211606 63 323 0.0 0.0 0.00 0.00 0.00 31 1003.6
20260507211005 64 319 0.0 0.0 0.00 0.00 0.00 29 1003.5
20260507210557 64 319 0.0 0.0 0.00 0.00 0.00 30 1003.5
20260507205602 63 268 0.0 0.0 0.00 0.00 0.00 31 1003.4
20260507205104 63 278 0.0 0.0 0.00 0.00 0.00 30 1003.4
20260507204506 63 278 0.0 0.0 0.00 0.00 0.00 30 1003.4
20260507204012 63 278 0.0 0.0 0.00 0.00 0.00 32 1003.5
20260507203516 63 264 0.0 0.0 0.00 0.00 0.00 30 1003.5
20260507203000 63 274 0.0 0.0 0.00 0.00 0.00 33 1003.5
20260507202505 63 260 0.0 0.0 0.00 0.00 0.00 31 1003.4
20260507202012 63 277 0.0 0.0 0.00 0.00 0.00 32 1003.4
20260507201514 62 318 0.0 0.0 0.00 0.00 0.00 33 1003.4
20260507201108 62 313 0.0 0.0 0.00 0.00 0.00 31 1003.5
20260507200502 63 268 0.0 0.0 0.00 0.00 0.00 31 1003.5
20260507200006 63 265 0.0 0.0 0.00 0.00 0.00 32 1003.5
20260507195509 63 311 0.0 0.0 0.00 0.00 0.00 32 1003.7
20260507195103 63 311 0.0 0.0 0.00 0.00 0.00 32 1003.7
20260507194501 63 311 0.0 0.0 0.00 0.00 0.00 33 1003.7
20260507194004 63 311 0.0 0.0 0.00 0.00 0.00 33 1003.9
20260507193511 63 292 0.0 0.0 0.00 0.00 0.00 32 1003.9
20260507193100 63 292 0.0 0.0 0.00 0.00 0.00 31 1003.9
20260507192605 63 306 0.0 0.0 0.00 0.00 0.00 31 1004.0
20260507192106 64 271 0.0 0.0 0.00 0.00 0.00 32 1004.0
20260507191504 63 258 0.0 0.0 0.00 0.00 0.00 32 1004.0
20260507191007 63 258 0.0 0.0 0.00 0.00 0.00 31 1004.2
20260507190510 64 288 0.0 0.0 0.00 0.00 0.00 31 1004.2
20260507190013 64 270 0.0 0.0 0.00 0.00 0.00 30 1004.2
20260507185609 64 296 0.0 0.0 0.00 0.00 0.00 31 1004.6
20260507185053 64 305 0.0 0.0 0.00 0.00 0.00 32 1004.6
20260507184605 64 305 0.0 0.0 0.00 0.00 0.00 32 1004.6
20260507184007 64 272 0.0 0.0 0.00 0.00 0.00 30 1004.7
20260507183558 64 272 0.0 0.0 0.00 0.00 0.00 30 1004.7
20260507183102 63 319 0.0 0.0 0.00 0.00 0.00 31 1004.7
20260507182605 63 257 0.0 0.0 0.00 0.00 0.00 32 1004.6
20260507182051 63 287 0.0 0.0 0.00 0.00 0.00 35 1004.6
20260507181539 63 257 0.0 0.0 0.00 0.00 0.00 33 1004.6
20260507181048 63 287 0.0 0.0 0.00 0.00 0.00 33 1004.6
20260507180558 63 287 0.0 0.0 0.00 0.00 0.00 37 1004.6
20260507180100 63 332 0.0 0.0 0.00 0.00 0.00 37 1004.6
20260507175604 63 316 0.0 0.0 0.00 0.00 0.00 35 1005.0
20260507175004 63 302 0.0 0.0 0.00 0.00 0.00 35 1005.0
20260507174504 63 291 0.0 0.0 0.00 0.00 0.00 33 1005.0
20260507174007 62 263 0.0 0.0 0.00 0.00 0.00 35 1005.1
20260507173602 62 326 0.0 0.0 0.00 0.00 0.00 34 1005.1
20260507173002 62 308 0.0 0.0 0.00 0.00 0.00 38 1005.1
20260507172506 62 294 0.0 0.0 0.00 0.00 0.00 38 1005.4
20260507172103 62 268 0.0 0.0 0.00 0.00 0.00 33 1005.4
20260507171503 62 264 0.0 0.0 0.00 0.00 0.00 39 1005.4
20260507171007 62 299 0.0 0.0 0.00 0.00 0.00 36 1005.7
20260507170602 62 287 0.0 0.0 0.00 0.00 0.00 37 1005.7
20260507170003 61 285 0.0 0.0 0.00 0.00 0.00 35 1005.7
20260507165505 62 311 0.0 0.0 0.00 0.00 0.00 38 1005.9
20260507165059 62 309 0.0 0.0 0.00 0.00 0.00 40 1005.9
20260507164606 61 309 0.0 0.0 0.00 0.00 0.00 41 1005.9
20260507164003 60 309 0.0 0.0 0.00 0.00 0.00 39 1006.2
20260507163558 60 309 0.0 0.0 0.00 0.00 0.00 41 1006.2
20260507163124 59 308 0.0 0.0 0.00 0.00 0.00 39 1006.2
20260507162604 59 289 0.0 0.0 0.00 0.00 0.00 40 1006.4
20260507162109 59 267 0.0 0.0 0.00 0.00 0.00 44 1006.4
20260507161507 58 319 0.0 0.0 0.00 0.00 0.00 45 1006.4
20260507161006 58 320 0.0 0.0 0.00 0.00 0.00 48 1006.3
20260507160512 58 285 0.0 0.0 0.00 0.00 0.00 44 1006.3
20260507160104 58 243 0.0 0.0 0.00 0.00 0.00 50 1006.3
20260507155504 58 332 0.0 0.0 0.00 0.00 0.00 50 1006.6
20260507155005 57 294 0.0 0.0 0.00 0.00 0.00 51 1006.6
20260507154508 57 294 0.0 0.0 0.00 0.00 0.00 53 1006.6
20260507154102 56 285 0.0 0.0 0.00 0.00 0.00 54 1006.9
20260507153605 56 285 0.0 0.0 0.00 0.00 0.00 56 1006.9
20260507153003 55 284 0.0 0.0 0.00 0.00 0.00 53 1006.9
20260507152505 55 275 0.0 0.0 0.00 0.00 0.00 53 1007.1
20260507152100 55 325 0.0 0.0 0.00 0.00 0.00 53 1007.1
20260507151604 55 344 0.0 0.0 0.00 0.00 0.00 57 1007.1
20260507151001 54 263 0.0 0.0 0.00 0.00 0.00 56 1007.3
20260507150558 54 330 0.0 0.0 0.00 0.00 0.00 60 1007.3
20260507150101 53 305 0.0 0.0 0.00 0.00 0.00 60 1007.3
20260507145604 53 305 0.0 0.0 0.00 0.00 0.00 58 1007.5
20260507145001 53 323 0.0 0.0 0.00 0.00 0.00 60 1007.5
20260507144615 53 330 0.0 0.0 0.00 0.00 0.00 61 1007.5
20260507144101 53 215 0.0 0.0 0.00 0.00 0.00 63 1007.6
20260507143600 52 216 0.0 0.0 0.00 0.00 0.00 62 1007.6
20260507143049 52 198 0.0 0.0 0.00 0.00 0.00 61 1007.6
20260507142552 52 299 0.0 0.0 0.00 0.00 0.00 62 1007.6
20260507142106 52 278 0.0 0.0 0.00 0.00 0.00 62 1007.6
20260507141502 52 323 0.0 0.0 0.00 0.00 0.00 64 1007.6
20260507141007 52 325 0.0 0.0 0.00 0.00 0.00 68 1007.7
20260507140509 51 325 0.0 0.0 0.00 0.00 0.00 67 1007.7
20260507140104 51 325 0.0 0.0 0.00 0.00 0.00 69 1007.7
20260507135606 51 325 0.0 0.0 0.00 0.00 0.00 70 1007.9
20260507135002 51 313 0.0 0.0 0.00 0.00 0.00 74 1007.9
20260507134506 51 313 0.0 0.0 0.00 0.00 0.00 74 1007.9
20260507134059 51 313 0.0 0.0 0.00 0.00 0.00 73 1007.8
20260507133603 50 313 0.0 0.0 0.00 0.00 0.00 74 1007.8
20260507133004 50 313 0.0 0.0 0.00 0.00 0.00 76 1007.8
20260507132505 50 299 0.0 0.0 0.00 0.00 0.00 76 1007.8
20260507132059 50 325 0.0 0.0 0.00 0.00 0.00 79 1007.8
20260507131602 50 325 0.0 0.0 0.00 0.00 0.00 82 1007.8
20260507131106 50 325 0.0 0.0 0.00 0.00 0.00 81 1007.8
20260507130502 50 325 0.0 0.0 0.00 0.00 0.00 82 1007.8
20260507130105 49 325 0.0 0.0 0.00 0.00 0.00 83 1007.8
20260507125559 49 318 0.0 0.0 0.00 0.00 0.00 84 1007.8
20260507125101 49 318 0.0 0.0 0.00 0.00 0.00 86 1007.8
20260507124554 49 318 0.0 0.0 0.00 0.00 0.00 87 1007.8
20260507124059 49 318 0.0 0.0 0.00 0.00 0.00 88 1007.7
20260507123603 49 318 0.0 0.0 0.00 0.00 0.00 90 1007.7
20260507123104 49 318 0.0 0.0 0.00 0.00 0.00 91 1007.7
20260507122502 49 318 0.0 0.0 0.00 0.00 0.00 94 1007.7
20260507122008 49 318 0.0 0.0 0.00 0.00 0.00 95 1007.7
20260507121512 50 318 0.0 0.0 0.00 0.00 0.00 95 1007.7
20260507121106 50 318 0.0 0.0 0.00 0.00 0.00 96 1007.4
20260507120503 50 318 0.0 0.0 0.00 0.00 0.00 96 1007.4
20260507120007 50 318 0.0 0.0 0.00 0.00 0.00 96 1007.4
20260507115603 50 318 0.0 0.0 0.00 0.00 0.00 96 1007.2
20260507115006 50 318 0.0 0.0 0.00 0.00 0.00 96 1007.2
20260507114507 51 318 0.0 0.0 0.00 0.00 0.00 96 1007.2
20260507114100 51 318 0.0 0.0 0.00 0.00 0.00 96 1007.2
20260507113606 51 318 0.0 0.0 0.00 0.00 0.00 96 1007.2
20260507113011 51 318 0.0 0.0 0.00 0.00 0.00 96 1007.2
20260507112558 51 318 0.0 0.0 0.00 0.00 0.00 96 1007.2
20260507112100 50 318 0.0 0.0 0.00 0.00 0.00 96 1007.2
20260507111604 50 318 0.0 0.0 0.00 0.00 0.00 96 1007.2
20260507111004 50 318 0.0 0.0 0.00 0.00 0.00 96 1006.9
20260507110600 50 318 0.0 0.0 0.00 0.00 0.00 96 1006.9
20260507110105 50 318 0.0 0.0 0.00 0.00 0.00 96 1006.9
20260507105503 50 318 0.0 0.0 0.00 0.00 0.00 96 1006.9
20260507105005 50 318 0.0 0.0 0.00 0.00 0.00 96 1006.9
20260507104606 50 318 0.0 0.0 0.00 0.00 0.00 96 1006.9
20260507104101 50 318 0.0 0.0 0.00 0.00 0.00 96 1006.6
20260507103605 50 318 0.0 0.0 0.00 0.00 0.00 96 1006.6
20260507103003 50 318 0.0 0.0 0.00 0.00 0.00 96 1006.6
20260507102504 49 318 0.0 0.0 0.00 0.00 0.00 96 1006.7